Regional Weather Roundup
Issued by NWS

Home | Current Version | Previous Version | Text Only | Print | Product List | Glossary On
Versions: 1 2 3 4 5 6 7 8 9 10 11 12 13 14 15 16 17 18 19 20 21 22 23 24 25 26 27 28 29 30 31 32 33 34 35 36 37 38 39 40 41 42 43 44 45 46 47 48 49 50
000
ASUS43 KDMX 010604
RWRIA

WEATHER ROUNDUP FOR IOWA
NATIONAL WEATHER SERVICE DES MOINES IA
  ISSUED BY NWS QUAD CITIES IA IL
1200 AM CST SUN MAR 01 2015

NOTE: "FAIR" INDICATES FEW OR NO CLOUDS BELOW 12,000 FEET WITH NO
SIGNIFICANT WEATHER AND/OR OBSTRUCTIONS TO VISIBILITY.

* - THESE STATIONS ARE NOT NWS STATIONS...THUS NOT UNDER NWS
QUALITY CONTROL.  THEY ALSO DO NOT REPORT WEATHER SUCH
AS PRECIPITATION OR FOG.

IAZ001>003-012>014-020>022-031>034-043>046-010700-
   NORTHWEST IOWA

CITY           SKY/WX    TMP DP  RH WIND       PRES   REMARKS
CARROLL *      CLOUDY    19  16  86 S8        30.32F WCI   9
CHEROKEE *     PTCLDY    14  13  95 S7        30.30S WCI   4
6HR MIN TEMP:  14; 6HR MAX TEMP:  21;

DENNISON *     MOCLDY    19  18  93 S8        30.30F WCI   9
LE MARS *      CLEAR     16  14  93 S9        30.29S WCI   4
ORANGE CITY *  CLEAR     16  10  79 S8        30.26F WCI   5
SHELDON *      CLEAR     12  10  92 S8        30.25F WCI   1
SIOUX CITY     CLEAR     16  12  84 S6        30.30F WCI   7
6HR MIN TEMP:  14; 6HR MAX TEMP:  24;

SPENCER        CLEAR     11   7  84 S8        30.28F WCI  -1
6HR MIN TEMP:  11; 6HR MAX TEMP:  20;

STORM LAKE *   PTCLDY    12  10  92 S10       30.29F WCI  -1
$$

IAZ055>058-069>071-079>083-090>094-010700-
   SOUTHWEST IOWA

CITY           SKY/WX    TMP DP  RH WIND       PRES   REMARKS
ATLANTIC *     CLOUDY    21  18  86 SW8       30.34F WCI  12
AUDUBON *      FLURRIES  19  16  86 SW3       30.33S
CLARINDA *     CLOUDY    21  19  93 CALM      30.39S
COUNCIL BLFS * CLOUDY    21  19  93 SW6       30.33S WCI  14
CRESTON *      CLOUDY    21  19  93 S7        30.35S WCI  13
HARLAN *       CLOUDY    21  21 100 S8        30.36F WCI  12
LAMONI         CLOUDY    19  17  92 CALM      30.36F
6HR MIN TEMP:  16; 6HR MAX TEMP:  21;

RED OAK *      CLOUDY    21  18  86 S7        30.37R WCI  13
SHENANDOAH *   CLOUDY    21  18  86 S6        30.39R WCI  14
$$

IAZ047>049-059>061-072>074-084-010700-
   CENTRAL IOWA

CITY           SKY/WX    TMP DP  RH WIND       PRES   REMARKS
AMES           CLOUDY    18  14  84 S10       30.36F WCI   6
6HR MIN TEMP:  12; 6HR MAX TEMP:  18; 6HR PCP: TRACE;

ANKENY *       CLOUDY    19  16  86 SE7       30.38F WCI  10
BOONE *        CLOUDY    19  18  93 CALM      30.33F
CHARITON *     CLOUDY    18  16  93 SE6       30.37F WCI   9
DES MOINES     FLURRIES  21  16  81 SE7       30.37F WCI  12
6HR MIN TEMP:  20; 6HR MAX TEMP:  22; 6HR PCP: TRACE;

GRINNELL *     FLURRIES  13  10  91 SE3       30.39S
6HR MIN TEMP:  10; 6HR MAX TEMP:  17;

KNOXVILLE *    CLOUDY    18  14  86 SE6       30.37F WCI   9
MARSHALLTOWN   CLOUDY    14  12  92 SE8       30.37F FOG     WCI   3
6HR MIN TEMP:  11; 6HR MAX TEMP:  16; 6HR PCP: TRACE;

NEWTON *       CLOUDY    16  12  86 SE9       30.38F WCI   4
PELLA *        FLURRIES  16  15  99 SE7       30.41F WCI   6
6HR MIN TEMP:  12; 6HR MAX TEMP:  20;

PERRY *          N/A     21  19  92 S10       30.35F WCI  10
6HR MIN TEMP:  18; 6HR MAX TEMP:  21;

$$

IAZ004>006-015-016-023>025-035-036-010700-
   NORTH CENTRAL IOWA

CITY           SKY/WX    TMP DP  RH WIND       PRES   REMARKS
ALGONA *       CLEAR     12  12 100 S10       30.31F WCI  -1
CLARION *      CLOUDY    16  16 100 S10       30.33F WCI   3
ESTHERVILLE    CLEAR     11   9  92 S13       30.28S WCI  -4
6HR MIN TEMP:  10; 6HR MAX TEMP:  19;

FORT DODGE *   CLOUDY    18  14  86 S7        30.34F WCI   8
6HR MIN TEMP:  18; 6HR MAX TEMP:  19;

MASON CITY     CLOUDY    11   8  88 S10       30.34F WCI  -3
6HR MIN TEMP:   5; 6HR MAX TEMP:  12; 6HR PCP: TRACE;

FOREST CITY *  FLURRIES  12   9  85 SE9       30.31F WCI   0
WEBSTER CITY * CLOUDY    18  18 100 S10       30.33F WCI   6
IOWA FALLS *   FLURRIES  14  12  90 SE8       30.36F WCI   3
6HR MIN TEMP:  10; 6HR MAX TEMP:  15;

$$

IAZ007>011-017>019-026>030-037>042-050>054-066-010700-
   NORTHEAST IOWA

CITY           SKY/WX    TMP DP  RH WIND       PRES   REMARKS
CEDAR RAPIDS   CLOUDY    10   8  92 CALM      30.40F FOG
6HR MIN TEMP:   6; 6HR MAX TEMP:  15; 6HR PCP: TRACE;

CHARLES CITY * CLOUDY    12   9  85 S10       30.36F FOG     WCI  -1
CLINTON *      MOCLDY     7   3  85 CALM      30.45S
6HR MIN TEMP:   7; 6HR MAX TEMP:  16;

DECORAH *      CLOUDY     5   0  78 S6        30.38S WCI  -6
DUBUQUE        CLOUDY     8   5  87 S6        30.39F FOG     WCI  -2
6HR MIN TEMP:   4; 6HR MAX TEMP:  13; 6HR PCP: TRACE;

MONTICELLO *   CLOUDY     5   3  92 CALM      30.41F
OELWEIN *      CLOUDY     3   0  85 SE6       30.39F FOG     WCI  -8
WATERLOO       LGT SNOW  10   8  92 CALM      30.40F FOG
6HR MIN TEMP:   1; 6HR MAX TEMP:  14; 6HR PCP: TRACE;

$$

IAZ064-065-067-068-078-010700-
   EAST CENTRAL IOWA

CITY           SKY/WX    TMP DP  RH WIND       PRES   REMARKS
DAVENPORT      PTCLDY    12   8  84 SE5       30.42F FOG     WCI   4
6HR MIN TEMP:   7; 6HR MAX TEMP:  15; 6HR PCP: TRACE;

IOWA CITY      PTCLDY     8   6  92 CALM      30.44F FOG
6HR MIN TEMP:   8; 6HR MAX TEMP:  16; 6HR PCP: TRACE;

MT. PLEASANT * FOG       11   9  90 SE3       30.42S VSB 1/2
6HR MIN TEMP:   9; 6HR MAX TEMP:  18;

MUSCATINE *    FOG        5   1  85 CALM      30.44F VSB 1/4
QUAD CITIES    PTCLDY     6   3  87 CALM      30.43F FOG
6HR MIN TEMP:   6; 6HR MAX TEMP:  17; 6HR PCP: TRACE;

$$

IAZ062-063-075>077-085>089-095>099-010700-
   SOUTHEAST IOWA

CITY           SKY/WX    TMP DP  RH WIND       PRES   REMARKS
BURLINGTON     CLOUDY    19  17  92 CALM      30.41F
6HR MIN TEMP:  17; 6HR MAX TEMP:  19; 6HR PCP: TRACE;

FAIRFIELD *    HAZE       7   1  78 SE5       30.41S VSB<1/4 WCI  -2
FORT MADISON * CLOUDY    19  18  93 CALM      30.41S
KEOKUK *       CLOUDY    21  19  93 E5        30.39F WCI  15
OSKALOOSA *    FOG        8   5  88 CALM      30.40F VSB 1/4
6HR MIN TEMP:   7; 6HR MAX TEMP:  17;

CENTERVILLE *  FAIR      14  14 100 CALM      30.39F
OTTUMWA        MOCLDY     9   6  88 CALM      30.40F FOG
6HR MIN TEMP:   7; 6HR MAX TEMP:  18; 6HR PCP: TRACE;

WASHINGTON *   FOG        7   7 100 NE6       30.42S VSB<1/4 WCI  -3
$$

ABBREVIATIONS USED IN REMARKS
   TC - TEMPERATURES IN CELSIUS
  WCI - WIND CHILL INDEX
   HX - HEAT INDEX
  VSB - VISIBILITY
$$


USA.gov is the U.S. government's official web portal to all federal, state and local government web resources and services.